contact:dominique.lefevre@mio.osupytheas.fr, maurice.libes@osupytheas.fr, didier.mallarino@osupytheas.fr
Project:EMSO http://www.emso-fr.org/EMSO-France
Depth: 2436.0 m
Title:EMSO Ligure Ouest : Data MII capteur CSTAR
DateTime,Latitude,Longitude,Instrument_Serial,Reference_Counts,Signal_Counts,Corrected_Signal_raw_counts,Calculated_Beam_c_inverse_meters,Internal_thermistor_counts
DateTime,Latitude,Longitude,Instrument_Serial,Reference_Counts,Signal_Counts,Corrected_Signal_raw_counts,Calculated_Beam_c_inverse_meters,Internal_thermistor_counts
2019-08-02T00:02:52,42.805,6.029,CST-1368DR,8449,11812,15432,0.047,551
2019-08-02T00:05:53,42.805,6.029,CST-1368DR,8449,11811,15431,0.048,551
2019-08-02T00:08:55,42.805,6.029,CST-1368DR,8450,11814,15433,0.047,551
2019-08-02T00:11:57,42.805,6.029,CST-1368DR,8450,11813,15431,0.048,551
2019-08-02T00:14:59,42.805,6.029,CST-1368DR,8449,11814,15434,0.047,551
2019-08-02T00:18:01,42.805,6.029,CST-1368DR,8449,11815,15435,0.047,551
2019-08-02T00:21:02,42.805,6.029,CST-1368DR,8449,11815,15436,0.046,551
2019-08-02T00:24:04,42.805,6.029,CST-1368DR,8449,11814,15435,0.047,551
2019-08-02T00:27:06,42.805,6.029,CST-1368DR,8449,11811,15430,0.048,550
2019-08-02T00:30:08,42.805,6.029,CST-1368DR,8449,11814,15434,0.047,551
2019-08-02T00:33:10,42.805,6.029,CST-1368DR,8449,11812,15432,0.047,551
2019-08-02T00:36:12,42.805,6.029,CST-1368DR,8449,11812,15431,0.048,551
2019-08-02T00:39:13,42.805,6.029,CST-1368DR,8449,11813,15433,0.047,550
2019-08-02T00:42:15,42.805,6.029,CST-1368DR,8449,11813,15432,0.047,551
2019-08-02T00:45:17,42.805,6.029,CST-1368DR,8449,11814,15434,0.047,551
2019-08-02T00:48:19,42.805,6.029,CST-1368DR,8449,11812,15432,0.047,550
2019-08-02T00:51:21,42.805,6.029,CST-1368DR,8449,11813,15433,0.047,551
2019-08-02T00:54:22,42.805,6.029,CST-1368DR,8449,11812,15432,0.047,551
2019-08-02T00:57:24,42.805,6.029,CST-1368DR,8449,11813,15433,0.047,551
2019-08-02T01:00:26,42.805,6.029,CST-1368DR,8449,11812,15432,0.047,551
2019-08-02T01:03:28,42.805,6.029,CST-1368DR,8449,11813,15433,0.047,551
2019-08-02T01:06:30,42.805,6.029,CST-1368DR,8449,11812,15432,0.047,551
2019-08-02T01:09:32,42.805,6.029,CST-1368DR,8449,11814,15434,0.047,550
2019-08-02T01:12:33,42.805,6.029,CST-1368DR,8449,11814,15435,0.047,551
2019-08-02T01:15:35,42.805,6.029,CST-1368DR,8449,11813,15433,0.047,551
2019-08-02T01:18:37,42.805,6.029,CST-1368DR,8449,11813,15433,0.047,551
2019-08-02T01:21:39,42.805,6.029,CST-1368DR,8449,11809,15427,0.049,551
2019-08-02T01:24:40,42.805,6.029,CST-1368DR,8449,11814,15434,0.047,551
2019-08-02T01:27:42,42.805,6.029,CST-1368DR,8449,11812,15432,0.047,551
2019-08-02T01:30:44,42.805,6.029,CST-1368DR,8449,11811,15430,0.048,551
2019-08-02T01:33:46,42.805,6.029,CST-1368DR,8449,11810,15429,0.048,551
2019-08-02T01:36:48,42.805,6.029,CST-1368DR,8449,11812,15432,0.047,551
2019-08-02T01:39:50,42.805,6.029,CST-1368DR,8449,11803,15420,0.051,551
2019-08-02T01:42:51,42.805,6.029,CST-1368DR,8449,11809,15428,0.048,551
2019-08-02T01:45:53,42.805,6.029,CST-1368DR,8449,11811,15430,0.048,550
2019-08-02T01:48:55,42.805,6.029,CST-1368DR,8449,11811,15431,0.048,551
2019-08-02T01:51:57,42.805,6.029,CST-1368DR,8449,11809,15427,0.049,551
2019-08-02T01:54:59,42.805,6.029,CST-1368DR,8449,11811,15431,0.048,551
2019-08-02T01:58:01,42.805,6.029,CST-1368DR,8449,11812,15432,0.047,551
2019-08-02T02:01:02,42.805,6.029,CST-1368DR,8449,11810,15429,0.048,551
2019-08-02T02:04:04,42.805,6.029,CST-1368DR,8449,11809,15428,0.048,550
2019-08-02T02:07:06,42.805,6.029,CST-1368DR,8449,11811,15430,0.048,551
2019-08-02T02:10:08,42.805,6.029,CST-1368DR,8449,11811,15430,0.048,550
2019-08-02T02:13:10,42.805,6.029,CST-1368DR,8449,11812,15432,0.047,551
2019-08-02T02:16:12,42.805,6.029,CST-1368DR,8448,11811,15431,0.048,551
2019-08-02T02:19:13,42.805,6.029,CST-1368DR,8449,11812,15432,0.047,551
2019-08-02T02:22:15,42.805,6.029,CST-1368DR,8448,11807,15427,0.049,551
2019-08-02T02:25:17,42.805,6.029,CST-1368DR,8448,11810,15430,0.048,551
2019-08-02T02:28:18,42.805,6.029,CST-1368DR,8448,11812,15433,0.047,551
2019-08-02T02:31:20,42.805,6.029,CST-1368DR,8448,11811,15431,0.048,551
2019-08-02T02:34:22,42.805,6.029,CST-1368DR,8448,11808,15428,0.048,551
2019-08-02T02:37:24,42.805,6.029,CST-1368DR,8448,11810,15431,0.048,551
2019-08-02T02:40:26,42.805,6.029,CST-1368DR,8448,11811,15432,0.047,550
2019-08-02T02:43:27,42.805,6.029,CST-1368DR,8448,11809,15429,0.048,551
2019-08-02T02:46:29,42.805,6.029,CST-1368DR,8448,11810,15430,0.048,551
2019-08-02T02:49:31,42.805,6.029,CST-1368DR,8448,11811,15432,0.047,551
2019-08-02T02:52:33,42.805,6.029,CST-1368DR,8448,11811,15431,0.048,551
2019-08-02T02:55:35,42.805,6.029,CST-1368DR,8448,11812,15434,0.047,551
2019-08-02T02:58:37,42.805,6.029,CST-1368DR,8448,11812,15433,0.047,551
2019-08-02T03:01:38,42.805,6.029,CST-1368DR,8448,11812,15433,0.047,550
2019-08-02T03:04:40,42.805,6.029,CST-1368DR,8448,11807,15427,0.049,550
2019-08-02T03:07:42,42.805,6.029,CST-1368DR,8448,11810,15430,0.048,550
2019-08-02T03:10:44,42.805,6.029,CST-1368DR,8448,11810,15430,0.048,551
2019-08-02T03:13:46,42.805,6.029,CST-1368DR,8448,11810,15430,0.048,551
2019-08-02T03:16:48,42.805,6.029,CST-1368DR,8448,11812,15433,0.047,551
2019-08-02T03:19:49,42.805,6.029,CST-1368DR,8448,11810,15431,0.048,551
2019-08-02T03:22:51,42.805,6.029,CST-1368DR,8448,11809,15429,0.048,551
2019-08-02T03:25:53,42.805,6.029,CST-1368DR,8448,11810,15431,0.048,551
2019-08-02T03:28:55,42.805,6.029,CST-1368DR,8448,11809,15430,0.048,551
2019-08-02T03:31:57,42.805,6.029,CST-1368DR,8448,11812,15434,0.047,551
2019-08-02T03:34:58,42.805,6.029,CST-1368DR,8448,11810,15431,0.048,551
2019-08-02T03:38:00,42.805,6.029,CST-1368DR,8448,11811,15432,0.047,551
2019-08-02T03:41:02,42.805,6.029,CST-1368DR,8448,11810,15431,0.048,551
2019-08-02T03:44:04,42.805,6.029,CST-1368DR,8448,11810,15431,0.048,551
2019-08-02T03:47:06,42.805,6.029,CST-1368DR,8448,11809,15429,0.048,550
2019-08-02T03:50:08,42.805,6.029,CST-1368DR,8448,11811,15431,0.048,550
2019-08-02T03:53:10,42.805,6.029,CST-1368DR,8448,11811,15431,0.048,551
2019-08-02T03:56:11,42.805,6.029,CST-1368DR,8448,11810,15431,0.048,551
2019-08-02T03:59:13,42.805,6.029,CST-1368DR,8448,11810,15430,0.048,551
2019-08-02T04:02:15,42.805,6.029,CST-1368DR,8448,11810,15431,0.048,551
2019-08-02T04:05:17,42.805,6.029,CST-1368DR,8448,11810,15431,0.048,551
2019-08-02T04:08:19,42.805,6.029,CST-1368DR,8448,11811,15431,0.048,551
2019-08-02T04:11:21,42.805,6.029,CST-1368DR,8448,11810,15431,0.048,551
2019-08-02T04:14:23,42.805,6.029,CST-1368DR,8448,11812,15433,0.047,551
2019-08-02T04:17:24,42.805,6.029,CST-1368DR,8448,11812,15434,0.047,551
2019-08-02T04:20:26,42.805,6.029,CST-1368DR,8448,11810,15430,0.048,551
2019-08-02T04:23:28,42.805,6.029,CST-1368DR,8448,11810,15431,0.048,551
2019-08-02T04:26:30,42.805,6.029,CST-1368DR,8448,11813,15435,0.047,551
2019-08-02T04:29:32,42.805,6.029,CST-1368DR,8448,11814,15435,0.047,551
2019-08-02T04:32:34,42.805,6.029,CST-1368DR,8448,11814,15436,0.046,551
2019-08-02T04:35:35,42.805,6.029,CST-1368DR,8448,11812,15433,0.047,551
2019-08-02T04:38:37,42.805,6.029,CST-1368DR,8448,11813,15435,0.047,551
2019-08-02T04:41:39,42.805,6.029,CST-1368DR,8448,11815,15437,0.046,551
2019-08-02T04:44:41,42.805,6.029,CST-1368DR,8448,11813,15434,0.047,551
2019-08-02T04:47:42,42.805,6.029,CST-1368DR,8448,11817,15439,0.046,551
2019-08-02T04:50:44,42.805,6.029,CST-1368DR,8448,11814,15435,0.047,551
2019-08-02T04:53:46,42.805,6.029,CST-1368DR,8448,11815,15437,0.046,551
2019-08-02T04:56:47,42.805,6.029,CST-1368DR,8448,11815,15437,0.046,550
2019-08-02T04:59:49,42.805,6.029,CST-1368DR,8448,11816,15438,0.046,551
2019-08-02T05:02:51,42.805,6.029,CST-1368DR,8447,11816,15441,0.045,551
2019-08-02T05:05:52,42.805,6.029,CST-1368DR,8447,11815,15439,0.046,551
2019-08-02T05:08:54,42.805,6.029,CST-1368DR,8447,11814,15437,0.046,551
2019-08-02T05:11:55,42.805,6.029,CST-1368DR,8447,11816,15440,0.045,551
2019-08-02T05:14:57,42.805,6.029,CST-1368DR,8448,11816,15439,0.046,551
2019-08-02T05:17:59,42.805,6.029,CST-1368DR,8448,11816,15439,0.046,551
2019-08-02T05:21:00,42.805,6.029,CST-1368DR,8447,11816,15440,0.045,550
2019-08-02T05:24:02,42.805,6.029,CST-1368DR,8448,11813,15435,0.047,551
2019-08-02T05:27:04,42.805,6.029,CST-1368DR,8448,11814,15436,0.046,551
2019-08-02T05:30:05,42.805,6.029,CST-1368DR,8447,11813,15436,0.046,551
2019-08-02T05:33:07,42.805,6.029,CST-1368DR,8448,11816,15438,0.046,551
2019-08-02T05:36:09,42.805,6.029,CST-1368DR,8447,11812,15435,0.047,551
2019-08-02T05:39:10,42.805,6.029,CST-1368DR,8447,11809,15432,0.047,551
2019-08-02T05:42:12,42.805,6.029,CST-1368DR,8447,11816,15441,0.045,551
2019-08-02T05:45:14,42.805,6.029,CST-1368DR,8447,11814,15438,0.046,551
2019-08-02T05:48:15,42.805,6.029,CST-1368DR,8447,11814,15438,0.046,551
2019-08-02T05:51:17,42.805,6.029,CST-1368DR,8447,11814,15438,0.046,551
2019-08-02T05:54:18,42.805,6.029,CST-1368DR,8447,11815,15439,0.046,551
2019-08-02T05:57:20,42.805,6.029,CST-1368DR,8447,11814,15437,0.046,551
2019-08-02T06:00:22,42.805,6.029,CST-1368DR,8447,11814,15438,0.046,551
2019-08-02T06:03:23,42.805,6.029,CST-1368DR,8447,11813,15436,0.046,551
2019-08-02T06:06:25,42.805,6.029,CST-1368DR,8447,11815,15439,0.046,550
2019-08-02T06:09:27,42.805,6.029,CST-1368DR,8447,11815,15439,0.046,551
2019-08-02T06:12:28,42.805,6.029,CST-1368DR,8447,11811,15434,0.047,551
2019-08-02T06:15:30,42.805,6.029,CST-1368DR,8447,11816,15440,0.045,551
2019-08-02T06:18:31,42.805,6.029,CST-1368DR,8447,11816,15440,0.045,551
2019-08-02T06:21:33,42.805,6.029,CST-1368DR,8447,11813,15436,0.046,551
2019-08-02T06:24:35,42.805,6.029,CST-1368DR,8447,11802,15422,0.050,551
2019-08-02T06:27:36,42.805,6.029,CST-1368DR,8447,11816,15440,0.045,551
2019-08-02T06:30:38,42.805,6.029,CST-1368DR,8447,11814,15438,0.046,551
2019-08-02T06:33:40,42.805,6.029,CST-1368DR,8447,11816,15440,0.045,551
2019-08-02T06:36:41,42.805,6.029,CST-1368DR,8447,11815,15439,0.046,551
2019-08-02T06:39:43,42.805,6.029,CST-1368DR,8447,11814,15438,0.046,551
2019-08-02T06:42:45,42.805,6.029,CST-1368DR,8447,11813,15436,0.046,551
2019-08-02T06:45:46,42.805,6.029,CST-1368DR,8447,11815,15439,0.046,551
2019-08-02T06:48:48,42.805,6.029,CST-1368DR,8447,11813,15436,0.046,551
2019-08-02T06:51:50,42.805,6.029,CST-1368DR,8447,11813,15436,0.046,550
2019-08-02T06:54:51,42.805,6.029,CST-1368DR,8447,11816,15440,0.045,551
2019-08-02T06:57:53,42.805,6.029,CST-1368DR,8447,11814,15437,0.046,551
2019-08-02T07:00:54,42.805,6.029,CST-1368DR,8447,11815,15439,0.046,551
2019-08-02T07:03:56,42.805,6.029,CST-1368DR,8447,11812,15435,0.047,550
2019-08-02T07:06:58,42.805,6.029,CST-1368DR,8447,11816,15440,0.045,550
2019-08-02T07:09:59,42.805,6.029,CST-1368DR,8447,11816,15440,0.045,551
2019-08-02T07:13:01,42.805,6.029,CST-1368DR,8447,11813,15436,0.046,551
2019-08-02T07:16:03,42.805,6.029,CST-1368DR,8447,11817,15441,0.045,551
2019-08-02T07:19:04,42.805,6.029,CST-1368DR,8447,11817,15442,0.045,551
2019-08-02T07:22:06,42.805,6.029,CST-1368DR,8447,11817,15442,0.045,551
2019-08-02T07:25:08,42.805,6.029,CST-1368DR,8447,11817,15441,0.045,551
2019-08-02T07:28:10,42.805,6.029,CST-1368DR,8447,11812,15435,0.047,551
2019-08-02T07:31:11,42.805,6.029,CST-1368DR,8447,11816,15440,0.045,551
2019-08-02T07:34:13,42.805,6.029,CST-1368DR,8447,11817,15441,0.045,551
2019-08-02T07:37:14,42.805,6.029,CST-1368DR,8447,11814,15438,0.046,550
2019-08-02T07:40:16,42.805,6.029,CST-1368DR,8447,11817,15441,0.045,551
2019-08-02T07:43:18,42.805,6.029,CST-1368DR,8447,11816,15441,0.045,551
2019-08-02T07:46:19,42.805,6.029,CST-1368DR,8447,11818,15442,0.045,551
2019-08-02T07:49:21,42.805,6.029,CST-1368DR,8446,11805,15427,0.049,551
2019-08-02T07:52:23,42.805,6.029,CST-1368DR,8447,11818,15443,0.045,551
2019-08-02T07:55:24,42.805,6.029,CST-1368DR,8446,11815,15440,0.045,551
2019-08-02T07:58:26,42.805,6.029,CST-1368DR,8447,11818,15443,0.045,551
2019-08-02T08:01:28,42.805,6.029,CST-1368DR,8446,11817,15443,0.045,551
2019-08-02T08:04:29,42.805,6.029,CST-1368DR,8446,11817,15443,0.045,551
2019-08-02T08:07:31,42.805,6.029,CST-1368DR,8446,11816,15442,0.045,551
2019-08-02T08:10:33,42.805,6.029,CST-1368DR,8446,11814,15439,0.046,551
2019-08-02T08:13:34,42.805,6.029,CST-1368DR,8446,11815,15441,0.045,551
2019-08-02T08:16:36,42.805,6.029,CST-1368DR,8446,11816,15442,0.045,551
2019-08-02T08:19:37,42.805,6.029,CST-1368DR,8446,11816,15441,0.045,551
2019-08-02T08:22:39,42.805,6.029,CST-1368DR,8446,11815,15440,0.045,551
2019-08-02T08:25:41,42.805,6.029,CST-1368DR,8446,11814,15439,0.046,550
2019-08-02T08:28:43,42.805,6.029,CST-1368DR,8446,11815,15440,0.045,551
2019-08-02T08:31:44,42.805,6.029,CST-1368DR,8446,11812,15437,0.046,551
2019-08-02T08:34:46,42.805,6.029,CST-1368DR,8446,11814,15440,0.045,551
2019-08-02T08:37:48,42.805,6.029,CST-1368DR,8446,11812,15437,0.046,551
2019-08-02T08:40:50,42.805,6.029,CST-1368DR,8446,11807,15431,0.048,550
2019-08-02T08:43:52,42.805,6.029,CST-1368DR,8446,11812,15437,0.046,551
2019-08-02T08:46:53,42.805,6.029,CST-1368DR,8446,11813,15437,0.046,551
2019-08-02T08:49:55,42.805,6.029,CST-1368DR,8446,11812,15437,0.046,551
2019-08-02T08:52:57,42.805,6.029,CST-1368DR,8446,11807,15430,0.048,551
2019-08-02T08:55:59,42.805,6.029,CST-1368DR,8446,11813,15438,0.046,551
2019-08-02T08:59:00,42.805,6.029,CST-1368DR,8446,11812,15437,0.046,551
2019-08-02T09:02:02,42.805,6.029,CST-1368DR,8446,11811,15435,0.047,551
2019-08-02T09:05:04,42.805,6.029,CST-1368DR,8446,11810,15434,0.047,550
2019-08-02T09:08:06,42.805,6.029,CST-1368DR,8446,11811,15435,0.047,551
2019-08-02T09:11:08,42.805,6.029,CST-1368DR,8446,11812,15437,0.046,551
2019-08-02T09:14:09,42.805,6.029,CST-1368DR,8446,11812,15437,0.046,551
2019-08-02T09:17:11,42.805,6.029,CST-1368DR,8446,11811,15435,0.047,550
2019-08-02T09:20:13,42.805,6.029,CST-1368DR,8446,11812,15437,0.046,550
2019-08-02T09:23:15,42.805,6.029,CST-1368DR,8446,11814,15439,0.046,551
2019-08-02T09:26:17,42.805,6.029,CST-1368DR,8446,11814,15439,0.046,551
2019-08-02T09:29:18,42.805,6.029,CST-1368DR,8446,11812,15437,0.046,551
2019-08-02T09:32:20,42.805,6.029,CST-1368DR,8446,11810,15434,0.047,551
2019-08-02T09:35:22,42.805,6.029,CST-1368DR,8446,11811,15435,0.047,551
2019-08-02T09:38:24,42.805,6.029,CST-1368DR,8446,11813,15437,0.046,551
2019-08-02T09:41:26,42.805,6.029,CST-1368DR,8446,11814,15439,0.046,551
2019-08-02T09:44:28,42.805,6.029,CST-1368DR,8446,11813,15438,0.046,551
2019-08-02T09:47:30,42.805,6.029,CST-1368DR,8446,11811,15435,0.047,551
2019-08-02T09:50:31,42.805,6.029,CST-1368DR,8446,11813,15437,0.046,550
2019-08-02T09:53:33,42.805,6.029,CST-1368DR,8446,11813,15438,0.046,551
2019-08-02T09:56:35,42.805,6.029,CST-1368DR,8446,11812,15436,0.046,550
2019-08-02T09:59:37,42.805,6.029,CST-1368DR,8445,11812,15438,0.046,550
2019-08-02T10:02:38,42.805,6.029,CST-1368DR,8445,11813,15439,0.046,551
2019-08-02T10:05:40,42.805,6.029,CST-1368DR,8445,11811,15437,0.046,551
2019-08-02T10:08:42,42.805,6.029,CST-1368DR,8445,11813,15439,0.046,550
2019-08-02T10:11:44,42.805,6.029,CST-1368DR,8446,11813,15437,0.046,551
2019-08-02T10:14:45,42.805,6.029,CST-1368DR,8445,11812,15438,0.046,551
2019-08-02T10:17:47,42.805,6.029,CST-1368DR,8445,11809,15434,0.047,550
2019-08-02T10:20:49,42.805,6.029,CST-1368DR,8445,11811,15437,0.046,550
2019-08-02T10:23:51,42.805,6.029,CST-1368DR,8445,11812,15439,0.046,551
2019-08-02T10:26:52,42.805,6.029,CST-1368DR,8445,11812,15439,0.046,551
2019-08-02T10:29:54,42.805,6.029,CST-1368DR,8445,11812,15439,0.046,551
2019-08-02T10:32:56,42.805,6.029,CST-1368DR,8445,11813,15440,0.045,551
2019-08-02T10:35:58,42.805,6.029,CST-1368DR,8445,11812,15439,0.046,551
2019-08-02T10:39:00,42.805,6.029,CST-1368DR,8445,11811,15437,0.046,551
2019-08-02T10:42:02,42.805,6.029,CST-1368DR,8445,11811,15437,0.046,551
2019-08-02T10:45:03,42.805,6.029,CST-1368DR,8445,11810,15436,0.046,550
2019-08-02T10:48:05,42.805,6.029,CST-1368DR,8445,11810,15436,0.046,551
2019-08-02T10:51:07,42.805,6.029,CST-1368DR,8445,11810,15436,0.046,551
2019-08-02T10:54:09,42.805,6.029,CST-1368DR,8445,11812,15438,0.046,550
2019-08-02T10:57:11,42.805,6.029,CST-1368DR,8445,11812,15438,0.046,551
2019-08-02T11:00:12,42.805,6.029,CST-1368DR,8445,11812,15439,0.046,551
2019-08-02T11:03:14,42.805,6.029,CST-1368DR,8445,11811,15437,0.046,551
2019-08-02T11:06:16,42.805,6.029,CST-1368DR,8445,11811,15437,0.046,551
2019-08-02T11:09:18,42.805,6.029,CST-1368DR,8445,11811,15437,0.046,551
2019-08-02T11:12:19,42.805,6.029,CST-1368DR,8445,11811,15437,0.046,551
2019-08-02T11:15:21,42.805,6.029,CST-1368DR,8445,11812,15438,0.046,551
2019-08-02T11:18:23,42.805,6.029,CST-1368DR,8445,11811,15437,0.046,551
2019-08-02T11:21:25,42.805,6.029,CST-1368DR,8445,11811,15437,0.046,551
2019-08-02T11:24:26,42.805,6.029,CST-1368DR,8445,11811,15437,0.046,551
2019-08-02T11:27:29,42.805,6.029,CST-1368DR,8445,11811,15437,0.046,551
2019-08-02T11:30:30,42.805,6.029,CST-1368DR,8445,11812,15438,0.046,551
2019-08-02T11:33:32,42.805,6.029,CST-1368DR,8445,11811,15437,0.046,550
2019-08-02T11:36:34,42.805,6.029,CST-1368DR,8445,11811,15437,0.046,551
2019-08-02T11:39:36,42.805,6.029,CST-1368DR,8445,11810,15435,0.047,551
2019-08-02T11:42:38,42.805,6.029,CST-1368DR,8445,11812,15438,0.046,551
2019-08-02T11:45:40,42.805,6.029,CST-1368DR,8445,11810,15436,0.046,551
2019-08-02T11:48:41,42.805,6.029,CST-1368DR,8445,11811,15437,0.046,551
2019-08-02T11:51:43,42.805,6.029,CST-1368DR,8444,11809,15437,0.046,551
2019-08-02T11:54:45,42.805,6.029,CST-1368DR,8445,11810,15436,0.046,551
2019-08-02T11:57:47,42.805,6.029,CST-1368DR,8445,11810,15436,0.046,551
2019-08-02T12:00:49,42.805,6.029,CST-1368DR,8445,11811,15437,0.046,551
2019-08-02T12:03:51,42.805,6.029,CST-1368DR,8445,11810,15436,0.046,551
2019-08-02T12:06:52,42.805,6.029,CST-1368DR,8445,11812,15438,0.046,550
2019-08-02T12:09:54,42.805,6.029,CST-1368DR,8445,11810,15436,0.046,551
2019-08-02T12:12:56,42.805,6.029,CST-1368DR,8445,11812,15438,0.046,551
2019-08-02T12:15:58,42.805,6.029,CST-1368DR,8444,11808,15435,0.047,551
2019-08-02T12:19:00,42.805,6.029,CST-1368DR,8444,11811,15438,0.046,551
2019-08-02T12:22:01,42.805,6.029,CST-1368DR,8444,11809,15436,0.046,551
2019-08-02T12:25:03,42.805,6.029,CST-1368DR,8444,11810,15438,0.046,551
2019-08-02T12:28:05,42.805,6.029,CST-1368DR,8444,11810,15437,0.046,551
2019-08-02T12:31:07,42.805,6.029,CST-1368DR,8444,11810,15437,0.046,551
2019-08-02T12:34:09,42.805,6.029,CST-1368DR,8444,11808,15435,0.047,551
2019-08-02T12:37:10,42.805,6.029,CST-1368DR,8444,11811,15438,0.046,551
2019-08-02T12:40:12,42.805,6.029,CST-1368DR,8444,11811,15439,0.046,551
2019-08-02T12:43:14,42.805,6.029,CST-1368DR,8444,11808,15435,0.047,551
2019-08-02T12:46:16,42.805,6.029,CST-1368DR,8444,11799,15423,0.050,550
2019-08-02T12:49:18,42.805,6.029,CST-1368DR,8444,11810,15437,0.046,551
2019-08-02T12:52:20,42.805,6.029,CST-1368DR,8444,11810,15438,0.046,551
2019-08-02T12:55:21,42.805,6.029,CST-1368DR,8444,11807,15434,0.047,551
2019-08-02T12:58:23,42.805,6.029,CST-1368DR,8444,11810,15437,0.046,550
2019-08-02T13:01:25,42.805,6.029,CST-1368DR,8444,11810,15437,0.046,551
2019-08-02T13:04:27,42.805,6.029,CST-1368DR,8444,11810,15437,0.046,551
2019-08-02T13:07:29,42.805,6.029,CST-1368DR,8444,11809,15437,0.046,551
2019-08-02T13:10:30,42.805,6.029,CST-1368DR,8444,11808,15435,0.047,551
2019-08-02T13:13:32,42.805,6.029,CST-1368DR,8444,11806,15432,0.047,551
2019-08-02T13:16:34,42.805,6.029,CST-1368DR,8444,11809,15436,0.046,551
2019-08-02T13:19:36,42.805,6.029,CST-1368DR,8444,11803,15428,0.048,551
2019-08-02T13:22:38,42.805,6.029,CST-1368DR,8444,11806,15432,0.047,551
2019-08-02T13:25:39,42.805,6.029,CST-1368DR,8444,11806,15433,0.047,550
2019-08-02T13:28:41,42.805,6.029,CST-1368DR,8444,11808,15434,0.047,551
2019-08-02T13:31:43,42.805,6.029,CST-1368DR,8444,11807,15433,0.047,551
2019-08-02T13:34:45,42.805,6.029,CST-1368DR,8444,11807,15433,0.047,551
2019-08-02T13:37:47,42.805,6.029,CST-1368DR,8444,11806,15432,0.047,551
2019-08-02T13:40:49,42.805,6.029,CST-1368DR,8444,11807,15434,0.047,551
2019-08-02T13:43:51,42.805,6.029,CST-1368DR,8444,11808,15434,0.047,551
2019-08-02T13:46:52,42.805,6.029,CST-1368DR,8444,11807,15433,0.047,551
2019-08-02T13:49:54,42.805,6.029,CST-1368DR,8444,11807,15434,0.047,551
2019-08-02T13:52:56,42.805,6.029,CST-1368DR,8444,11807,15433,0.047,551
2019-08-02T13:55:58,42.805,6.029,CST-1368DR,8444,11808,15435,0.047,551
2019-08-02T13:59:00,42.805,6.029,CST-1368DR,8444,11807,15434,0.047,551
2019-08-02T14:02:02,42.805,6.029,CST-1368DR,8444,11806,15432,0.047,551
2019-08-02T14:05:03,42.805,6.029,CST-1368DR,8444,11806,15432,0.047,550
2019-08-02T14:08:05,42.805,6.029,CST-1368DR,8444,11806,15433,0.047,551
2019-08-02T14:11:07,42.805,6.029,CST-1368DR,8443,11806,15433,0.047,550
2019-08-02T14:14:09,42.805,6.029,CST-1368DR,8443,11807,15436,0.046,551
2019-08-02T14:17:11,42.805,6.029,CST-1368DR,8443,11806,15434,0.047,550
2019-08-02T14:20:13,42.805,6.029,CST-1368DR,8443,11803,15430,0.048,551
2019-08-02T14:23:14,42.805,6.029,CST-1368DR,8443,11804,15431,0.048,551
2019-08-02T14:26:16,42.805,6.029,CST-1368DR,8443,11806,15434,0.047,551
2019-08-02T14:29:18,42.805,6.029,CST-1368DR,8443,11804,15432,0.047,551
2019-08-02T14:32:19,42.805,6.029,CST-1368DR,8443,11805,15432,0.047,551
2019-08-02T14:35:21,42.805,6.029,CST-1368DR,8443,11803,15430,0.048,551
2019-08-02T14:38:23,42.805,6.029,CST-1368DR,8443,11806,15434,0.047,551
2019-08-02T14:41:24,42.805,6.029,CST-1368DR,8443,11807,15435,0.047,551
2019-08-02T14:44:26,42.805,6.029,CST-1368DR,8443,11807,15435,0.047,551
2019-08-02T14:47:27,42.805,6.029,CST-1368DR,8443,11806,15434,0.047,551
2019-08-02T14:50:29,42.805,6.029,CST-1368DR,8443,11802,15429,0.048,551
2019-08-02T14:53:31,42.805,6.029,CST-1368DR,8443,11806,15434,0.047,551
2019-08-02T14:56:32,42.805,6.029,CST-1368DR,8443,11806,15433,0.047,551
2019-08-02T14:59:34,42.805,6.029,CST-1368DR,8443,11806,15434,0.047,551
2019-08-02T15:02:36,42.805,6.029,CST-1368DR,8443,11802,15429,0.048,550
2019-08-02T15:05:37,42.805,6.029,CST-1368DR,8443,11805,15433,0.047,551
2019-08-02T15:08:39,42.805,6.029,CST-1368DR,8443,11806,15434,0.047,551
2019-08-02T15:11:41,42.805,6.029,CST-1368DR,8443,11805,15433,0.047,550
2019-08-02T15:14:42,42.805,6.029,CST-1368DR,8443,11803,15430,0.048,551
2019-08-02T15:17:44,42.805,6.029,CST-1368DR,8443,11804,15431,0.048,550
2019-08-02T15:20:45,42.805,6.029,CST-1368DR,8443,11805,15433,0.047,551
2019-08-02T15:23:47,42.805,6.029,CST-1368DR,8443,11806,15434,0.047,551
2019-08-02T15:26:49,42.805,6.029,CST-1368DR,8443,11806,15434,0.047,551
2019-08-02T15:29:50,42.805,6.029,CST-1368DR,8443,11807,15435,0.047,551
2019-08-02T15:32:52,42.805,6.029,CST-1368DR,8443,11807,15435,0.047,551
2019-08-02T15:35:54,42.805,6.029,CST-1368DR,8443,11807,15435,0.047,551
2019-08-02T15:38:55,42.805,6.029,CST-1368DR,8443,11807,15436,0.046,551
2019-08-02T15:41:57,42.805,6.029,CST-1368DR,8443,11807,15435,0.047,550
2019-08-02T15:44:59,42.805,6.029,CST-1368DR,8443,11805,15433,0.047,551
2019-08-02T15:48:00,42.805,6.029,CST-1368DR,8443,11808,15436,0.046,550
2019-08-02T15:51:02,42.805,6.029,CST-1368DR,8443,11807,15435,0.047,551
2019-08-02T15:54:04,42.805,6.029,CST-1368DR,8443,11805,15432,0.047,551
2019-08-02T15:57:05,42.805,6.029,CST-1368DR,8443,11808,15436,0.046,551
2019-08-02T16:00:07,42.805,6.029,CST-1368DR,8443,11807,15436,0.046,551
2019-08-02T16:03:09,42.805,6.029,CST-1368DR,8443,11807,15435,0.047,551
2019-08-02T16:06:10,42.805,6.029,CST-1368DR,8443,11807,15435,0.047,551
2019-08-02T16:09:12,42.805,6.029,CST-1368DR,8443,11808,15436,0.046,551
2019-08-02T16:12:14,42.805,6.029,CST-1368DR,8443,11808,15436,0.046,551
2019-08-02T16:15:15,42.805,6.029,CST-1368DR,8443,11808,15436,0.046,551
2019-08-02T16:18:17,42.805,6.029,CST-1368DR,8443,11809,15438,0.046,551
2019-08-02T16:21:18,42.805,6.029,CST-1368DR,8443,11807,15435,0.047,551
2019-08-02T16:24:20,42.805,6.029,CST-1368DR,8443,11806,15434,0.047,551
2019-08-02T16:27:22,42.805,6.029,CST-1368DR,8443,11807,15435,0.047,551
2019-08-02T16:30:23,42.805,6.029,CST-1368DR,8443,11805,15432,0.047,551
2019-08-02T16:33:25,42.805,6.029,CST-1368DR,8443,11805,15432,0.047,551
2019-08-02T16:36:27,42.805,6.029,CST-1368DR,8442,11806,15436,0.046,551
2019-08-02T16:39:28,42.805,6.029,CST-1368DR,8442,11807,15437,0.046,551